Mount Werner, CO

5:34 PM MDT on June 26, 2017 (GMT -0600)
Mount Werner

Weather History for K3MW - September, 2013

Change the Weather History Date:

Thursday, September 26, 2013

  Actual Average (KSBS) Record (KSBS)
Temperature  
Mean Temperature 50 °F -  
Max Temperature 59 °F 67 °F 84 °F (1963)
Min Temperature 42 °F 29 °F 14 °F (1970)
Degree Days  
Heating Degree Days 14    
Moisture  
Dew Point 11 °F    
Average Humidity 24    
Maximum Humidity 46    
Minimum Humidity 9    
Precipitation  
Precipitation 0.00 in - - ()
Sea Level Pressure  
Sea Level Pressure 29.97 in    
Wind  
Wind Speed 23 mph (SSE)    
Max Wind Speed 32 mph    
Max Gust Speed 45 mph    
Visibility 10 miles    
Events      
Averages and records for this station are not official NWS values.
T = Trace of Precipitation, MM = Missing Value Source: NWS Daily Summary

Daily Weather History Graph

Daily Weather History Graph

Search for Another Location

Airport or City:

Trip Planner

Search our weather history database for the weather conditions in past years. The results will help you decide how hot, cold, wet, or windy it might be!

Date:

Astronomy

Sep. 26, 2013 Rise Set
Actual Time 6:58 AM MDT 6:56 PM MDT
Civil Twilight 6:31 AM MDT 7:24 PM MDT
Nautical Twilight 5:59 AM MDT 7:55 PM MDT
Astronomical Twilight 5:27 AM MDT 8:27 PM MDT
Moon 11:56 PM MDT 1:54 PM MDT
Length of Visible Light 12h 52m
Length of Day
11h 58m
Waning Gibbous, 54% of the Moon is Illuminated
Sep 26
Waning Gibbous
Sep 26
Last Quarter
Oct 4
New
Oct 11
First Quarter
Oct 18
Full

Hourly Weather History & Observations

Time (MDT) Temp. Windchill Dew Point Humidity Pressure Visibility Wind Dir Wind Speed Gust Speed Precip Events Conditions
12:15 AM 44.6 °F 35.3 °F 21.2 °F 39% 29.91 in 10.0 mi SSE 26.5 mph 35.7 mph N/A   Scattered Clouds
12:35 AM 44.6 °F 35.5 °F 21.2 °F 39% 29.90 in 10.0 mi SSE 25.3 mph 36.8 mph N/A   Scattered Clouds
12:55 AM 44.6 °F 34.9 °F 21.2 °F 39% 29.90 in 10.0 mi SSE 28.8 mph 39.1 mph N/A   Clear
1:15 AM 44.6 °F 35.5 °F 21.2 °F 39% 29.90 in 10.0 mi SSE 25.3 mph 38.0 mph N/A   Clear
1:35 AM 42.8 °F 32.7 °F 21.2 °F 42% 29.91 in 10.0 mi SSE 27.6 mph 38.0 mph N/A   Clear
1:55 AM 42.8 °F 34.0 °F 23.0 °F 46% 29.92 in 10.0 mi SE 20.7 mph 27.6 mph N/A   Clear
2:15 AM 42.8 °F 34.0 °F 23.0 °F 46% 29.93 in 10.0 mi SE 20.7 mph 27.6 mph N/A   Clear
2:35 AM 42.8 °F 33.1 °F 21.2 °F 42% 29.92 in 10.0 mi SE 25.3 mph 29.9 mph N/A   Clear
2:55 AM 42.8 °F 33.3 °F 21.2 °F 42% 29.92 in 10.0 mi SSE 24.2 mph 31.1 mph N/A   Clear
3:15 AM 42.8 °F 34.0 °F 21.2 °F 42% 29.93 in 10.0 mi SSE 20.7 mph 31.1 mph N/A   Clear
3:35 AM 44.6 °F 36.1 °F 19.4 °F 37% 29.93 in 10.0 mi SSE 21.9 mph 34.5 mph N/A   Clear
3:55 AM 42.8 °F 34.3 °F 19.4 °F 39% 29.93 in 10.0 mi SE 19.6 mph 29.9 mph N/A   Clear
4:15 AM 42.8 °F 34.3 °F 19.4 °F 39% 29.94 in 10.0 mi SE 19.6 mph 28.8 mph N/A   Clear
4:35 AM 42.8 °F 33.8 °F 19.4 °F 39% 29.93 in 10.0 mi SE 21.9 mph 35.7 mph N/A   Clear
4:55 AM 42.8 °F 33.8 °F 19.4 °F 39% 29.94 in 10.0 mi SE 21.9 mph 29.9 mph N/A   Clear
5:15 AM 42.8 °F 34.0 °F 19.4 °F 39% 29.93 in 10.0 mi SSE 20.7 mph 29.9 mph N/A   Clear
5:35 AM 42.8 °F 33.8 °F 19.4 °F 39% 29.93 in 10.0 mi SSE 21.9 mph 31.1 mph N/A   Clear
5:55 AM 42.8 °F 34.3 °F 17.6 °F 36% 29.94 in 10.0 mi SSE 19.6 mph 31.1 mph N/A   Clear
6:15 AM 42.8 °F 34.5 °F 17.6 °F 36% 29.95 in 10.0 mi SSE 18.4 mph 31.1 mph N/A   Clear
6:35 AM 42.8 °F 34.5 °F 14.0 °F 31% 29.96 in 10.0 mi SSE 18.4 mph 31.1 mph N/A   Clear
6:55 AM 42.8 °F 33.8 °F 14.0 °F 31% 29.95 in 10.0 mi SSE 21.9 mph 36.8 mph N/A   Clear
7:15 AM 42.8 °F 33.8 °F 12.2 °F 29% 29.96 in 10.0 mi South 21.9 mph 36.8 mph N/A   Clear
7:35 AM 44.6 °F 35.9 °F 10.4 °F 25% 29.96 in 10.0 mi SSE 23.0 mph 34.5 mph N/A   Clear
7:55 AM 44.6 °F 35.9 °F 8.6 °F 23% 29.96 in 10.0 mi SSE 23.0 mph 38.0 mph N/A   Clear
8:15 AM 44.6 °F 35.9 °F 8.6 °F 23% 29.96 in 10.0 mi SE 23.0 mph 40.3 mph N/A   Clear
8:35 AM 44.6 °F 35.1 °F 8.6 °F 23% 29.95 in 10.0 mi SSE 27.6 mph 39.1 mph N/A   Clear
8:55 AM 46.4 °F 37.2 °F 6.8 °F 20% 29.95 in 10.0 mi SE 29.9 mph 42.6 mph N/A   Clear
9:15 AM 46.4 °F 37.0 °F 8.6 °F 22% 29.95 in 10.0 mi SSE 31.1 mph 41.4 mph N/A   Clear
9:35 AM 48.2 °F - 6.8 °F 19% 29.98 in 10.0 mi SSE 26.5 mph 39.1 mph N/A   Clear
9:55 AM 48.2 °F - 8.6 °F 20% 29.97 in 10.0 mi SSE 27.6 mph 35.7 mph N/A   Clear
10:15 AM 50.0 °F - 6.8 °F 17% 29.97 in 10.0 mi SSE 24.2 mph 36.8 mph N/A   Clear
10:35 AM 50.0 °F - 6.8 °F 17% 29.96 in 10.0 mi SSE 29.9 mph 41.4 mph N/A   Clear
10:55 AM 50.0 °F - 6.8 °F 17% 29.97 in 10.0 mi SSE 29.9 mph 38.0 mph N/A   Clear
11:15 AM 51.8 °F - 8.6 °F 18% 29.97 in 10.0 mi SE 27.6 mph 36.8 mph N/A   Clear
11:35 AM 51.8 °F - 10.4 °F 19% 29.99 in 10.0 mi SSE 19.6 mph 35.7 mph N/A   Clear
11:55 AM 51.8 °F - 12.2 °F 21% 29.98 in 10.0 mi SE 18.4 mph 34.5 mph N/A   Clear
12:15 PM 53.6 °F - 14.0 °F 21% 29.98 in 10.0 mi SSE 23.0 mph 31.1 mph N/A   Clear
12:35 PM 53.6 °F - 10.4 °F 18% 29.98 in 10.0 mi South 23.0 mph 36.8 mph N/A   Clear
12:55 PM 55.4 °F - 8.6 °F 15% 29.97 in 10.0 mi SSE 26.5 mph 36.8 mph N/A   Clear
1:15 PM 55.4 °F - 6.8 °F 14% 29.97 in 10.0 mi SE 25.3 mph 36.8 mph N/A   Clear
1:35 PM 55.4 °F - 5.0 °F 13% 29.96 in 10.0 mi SE 31.1 mph 44.9 mph N/A   Clear
1:55 PM 55.4 °F - 5.0 °F 13% 29.96 in 10.0 mi SSE 26.5 mph 42.6 mph N/A   Clear
2:15 PM 57.2 °F - 5.0 °F 12% 29.98 in 10.0 mi South 18.4 mph 39.1 mph N/A   Clear
2:35 PM 55.4 °F - 5.0 °F 13% 29.96 in 10.0 mi SE 26.5 mph 39.1 mph N/A   Scattered Clouds
2:55 PM 57.2 °F - 5.0 °F 12% 29.96 in 10.0 mi SSE 27.6 mph 41.4 mph N/A   Scattered Clouds
3:15 PM 57.2 °F - 3.2 °F 11% 29.95 in 10.0 mi SSE 29.9 mph 40.3 mph N/A   Clear
3:35 PM 59.0 °F - 1.4 °F 10% 29.95 in 10.0 mi SSE 32.2 mph 44.9 mph N/A   Scattered Clouds
3:55 PM 59.0 °F - -0.4 °F 9% 29.98 in 10.0 mi SSE 17.3 mph 39.1 mph N/A   Scattered Clouds
4:15 PM 55.4 °F - -2.2 °F 9% 29.97 in 10.0 mi South 20.7 mph 34.5 mph N/A   Mostly Cloudy
4:35 PM 57.2 °F - 1.4 °F 10% 29.98 in 10.0 mi SSW 21.9 mph 31.1 mph N/A   Scattered Clouds
4:55 PM 59.0 °F - 1.4 °F 10% 29.98 in 10.0 mi SW 15.0 mph 24.2 mph N/A   Clear
5:15 PM 59.0 °F - -0.4 °F 9% 29.99 in 10.0 mi SW 12.7 mph 20.7 mph N/A   Scattered Clouds
5:35 PM 59.0 °F - -0.4 °F 9% 29.99 in 10.0 mi SW 16.1 mph 21.9 mph N/A   Mostly Cloudy
5:55 PM 55.4 °F - 3.2 °F 12% 29.99 in 10.0 mi WSW 11.5 mph 17.3 mph N/A   Overcast
6:15 PM 53.6 °F - 5.0 °F 14% 30.00 in 10.0 mi WSW 11.5 mph 17.3 mph N/A   Overcast
6:35 PM 55.4 °F - 5.0 °F 13% 30.00 in 10.0 mi WSW 6.9 mph - N/A   Mostly Cloudy
6:55 PM 51.8 °F - 5.0 °F 15% 30.00 in 10.0 mi SW 9.2 mph - N/A   Mostly Cloudy
7:15 PM 51.8 °F - 5.0 °F 15% 30.00 in 10.0 mi SSW 11.5 mph - N/A   Scattered Clouds
7:35 PM 51.8 °F - 5.0 °F 15% 30.00 in 10.0 mi SW 10.4 mph - N/A   Mostly Cloudy
7:55 PM 51.8 °F - 5.0 °F 15% 30.01 in 10.0 mi SSW 10.4 mph - N/A   Overcast
8:15 PM 51.8 °F - 5.0 °F 15% 30.01 in 10.0 mi South 10.4 mph 20.7 mph N/A   Overcast
8:35 PM 51.8 °F - 5.0 °F 15% 30.00 in 10.0 mi SSE 17.3 mph 24.2 mph N/A   Overcast
8:55 PM 51.8 °F - 5.0 °F 15% 30.00 in 10.0 mi SSE 20.7 mph 28.8 mph N/A   Overcast
9:15 PM 50.0 °F - 5.0 °F 16% 29.99 in 10.0 mi SE 24.2 mph 29.9 mph N/A   Overcast
9:35 PM 50.0 °F - 6.8 °F 17% 30.00 in 10.0 mi SE 20.7 mph 28.8 mph N/A   Mostly Cloudy
9:55 PM 50.0 °F - 8.6 °F 19% 30.00 in 10.0 mi SSE 21.9 mph 28.8 mph N/A   Scattered Clouds
10:15 PM 50.0 °F - 8.6 °F 19% 30.02 in 10.0 mi South 15.0 mph 25.3 mph N/A   Mostly Cloudy
10:35 PM 50.0 °F - 10.4 °F 20% 30.02 in 10.0 mi South 17.3 mph 26.5 mph N/A   Overcast
10:55 PM 48.2 °F - 15.8 °F 27% 30.02 in 10.0 mi SSE 15.0 mph 28.8 mph N/A   Overcast
11:15 PM 46.4 °F 38.1 °F 21.2 °F 37% 30.01 in 10.0 mi SSE 24.2 mph 31.1 mph N/A   Overcast
11:35 PM 46.4 °F 37.7 °F 23.0 °F 40% 30.00 in 10.0 mi SSE 26.5 mph 36.8 mph N/A   Overcast
11:55 PM 44.6 °F 37.2 °F 24.8 °F 46% 30.01 in 10.0 mi SSE 17.3 mph 31.1 mph N/A   Overcast